Location: Newark
(22.8000°N, 86.1800°E)
Time: 09:18:53
(UTC+00:00)

ITUPSAT 1 - Visible Passes

Search period start: 06 June 2020 00:00
Search period end: 16 June 2020 00:00
Orbit: 701 x 713 km, 98.6° (Epoch: 05 June)

Date Brightness Start Highest point End Pass type
(mag) Time Alt. Az. Time Alt. Az. Time Alt. Az.
06 Jun ? 22:53:56 10° ESE 22:57:32 22° ENE 23:01:08 10° NNE visible
08 Jun ? 13:26:45 10° NW 13:28:49 13° WNW 13:30:54 10° W visible
08 Jun ? 22:45:19 10° ESE 22:48:18 17° ENE 22:51:17 10° NNE visible
10 Jun ? 22:37:01 10° E 22:39:04 13° ENE 22:41:08 10° NE visible
15 Jun ? 23:00:36 10° SE 23:04:27 25° ENE 23:08:18 10° NNE visible
